FENGYUN 1C DEB, 30441

Orbit data source: Space-Track

FENGYUN 1C DEB, 30441 is space debris in SSO originally from a launch on Mon, 10 May 1999 UTC launched from the Taiyaun Space Center, China (TSC). Fengyun 1C debris stems from the Chinese weather satellite Fengyun-1C, which was intentionally destroyed by a Chinese anti-satellite missile in 2007. This event dramatically increased the amount of space debris, with thousands of trackable fragments posing hazards to satellites and human spaceflight. The Fengyun 1C debris cloud has become a focal point in discussions about space sustainability and the need for international regulations to prevent the creation of new debris.

Loading next visibility...
Identifier
30441, 1999-025AFC
Orbit
SSO
Country
Flag of CNCN / PRC
Related business
Manufacturer
Unknown
Mission
Spacecraft
Bus & Motor
Unknown
Mass
Unknown
Launch date (UTC)
1999-05-10 (27 years ago)
Launch vehicle
Unknown
Launch site
Taiyaun Space Center, China (TSC)
Object type
Payload
Rocket body
Debris
Shape & HBR
Unknown shape, 0.1 m
Radar Cross Section
Medium (>0.1 m² and <1 m²)

Expand to show TLE details & history
Last TLE update: 9 hours ago

TLE from 9 hours ago
0 FENGYUN 1C DEB
1 30441U 99025AFC 26238.46241688  .00000342  00000-0  34017-3 0  9994
2 30441  99.1248 323.0203 0182461 296.8682  61.3921 13.77937718984054
Epoch: 2026-08-26T11:05Z
TLE epoch observation values (Epoch: 2026-08-26T11:05:52.818Z)
Latitude
-0.00001°
Longitude
-178.16484°
Altitude
911.747 km
Speed
7.427 km/s
True Right ascension
21h 32m 04s
True Declination
0° 00' 00"
Sunlit
Object was in full shadow at epoch
Visualization orbit readout
Latitude
Unknown
Longitude
Unknown
Altitude
Unknown
Speed
Unknown
Apparent Right ascension
Unknown
Apparent Declination
Unknown
Sunlit
N/A
Visualization observer readout
Local Sidereal Time
11:11:45
Azimuth
Unknown
Elevation
Unknown
Doppler factor
Unknown
Orbital elements
Apogee altitude
1,102.491 km
Perigee altitude
834.398 km
Semi-major axis
7,346.581 km
Eccentricity
0.01825
Inclination
99.1248°
RAAN
323.0203°
Arg. of periapsis
296.8682°
True anomaly
63.24762°
Mean anomaly
61.3921°
Eccentric anomaly
62.31786°
Mean motion
3.44679 °/min
Orbital period
104.44 mins
BSTAR
0.00034017
Loading maneuver chart data...
Computing Atmospheric mass density...

Documentation

Showing up to 5 results
|